Location: Newark
(45.2500°N, 7.5833°E)
Time: 19:37:31
(UTC+00:00)

A-11 Canister half - Pass Details

Date: 02 February 2020
Orbit: 1524 x 1684 km, 47.3° (Epoch: 19 February)

Event Time Altitude Azimuth Distance (km) Brightness Sun altitude
Rises 19:34:16 0° 288° (WNW) 4,697 12.7 -31.2°
Reaches altitude 10° 19:37:17 10° 287° (WNW) 3,726 11.9 -31.8°
Maximum altitude 19:46:44 82° 203° (SSW) 1,595 8.9 -33.4°
Enters shadow 19:47:57 71° 138° (SE) 1,658 8.8 -33.6°
Drops below altitude 10° 19:56:29 10° 117° (ESE) 3,837 - -35.1°
Sets 19:59:38 0° 117° (ESE) 4,843 - -35.6°
